Meteo Giornale » Osservazioni meteo Gran Bretagna » Belfast-Aldergrove

ore: 22:20 - Osservazioni Meteo Belfast-Aldergrove
Lat. 54° 39' N Lon. 6° 13' W Alt. 81 metri s.l.m.

molto_nuvoloso Europe/London

8 °C

Molto Nuvoloso

Temp. 24 Ore

8 °C

11 °C

Ovest/Sud-Ovest

24 Km/h

Dew point 7 °C

Umidità 93 %

Visibilità  10 Km

Il sole sorge alle ore 08:29

Il sole tramonta alle ore 16:02

Data e Ora Cielo e Fenomeni T °C DP °C Um. % Pres. hPa Vis. km Vento km/h
Oggi h: 22:20 molto_nuvoloso Molto Nuvoloso 8 7 93 1005 10 O/SO 24
Oggi h: 21:50 molto_nuvoloso Molto Nuvoloso 8 7 93 1005 9 O/SO 24
Oggi h: 21:20 molto_nuvoloso Molto Nuvoloso 8 7 93 1005 10 O/SO 25.9
Oggi h: 20:50 molto_nuvoloso Molto Nuvoloso 8 7 93 1004 10 O/SO 27.8
Oggi h: 20:20 molto_nuvoloso Molto Nuvoloso 8 7 93 1004 10 O 27.8
Oggi h: 19:50 coperto Coperto 8 7 93 1004 10 O/SO 25.9
Oggi h: 19:20 molto_nuvoloso Molto Nuvoloso 8 7 93 1003 10 O/SO 22.2
Oggi h: 18:50 molto_nuvoloso Molto Nuvoloso 8 7 93 1003 10 O 24
Oggi h: 18:20 molto_nuvoloso Molto Nuvoloso 8 7 93 1003 10 O/SO 24
Oggi h: 17:50 molto_nuvoloso Molto Nuvoloso 8 7 93 1002 10 O/SO 24
Oggi h: 17:20 molto_nuvoloso Molto Nuvoloso 8 7 93 1002 10 O/SO 24
Oggi h: 16:50 molto_nuvoloso Molto Nuvoloso 8 7 93 1001 10 O/SO 20.3
Oggi h: 16:20 molto_nuvoloso Molto Nuvoloso 8 7 93 1000 10 O/SO 20.3
Oggi h: 15:50 molto_nuvoloso Molto Nuvoloso 8 7 93 1000 10 O/SO 16.7
Oggi h: 15:20 molto_nuvoloso Molto Nuvoloso 8 8 100 999 10 O/SO 18.5
Oggi h: 14:50 nuvoloso Nuvoloso 9 8 93 999 10 O/SO 20.3
Oggi h: 14:20 molto_nuvoloso Molto Nuvoloso 9 8 93 998 10 O 20.3
Oggi h: 13:50 molto_nuvoloso Molto Nuvoloso 9 8 93 998 10 O 18.5
Oggi h: 13:20 nuvoloso Nuvoloso 9 9 100 997 10 O 20.3
Oggi h: 12:50 nuvoloso Nuvoloso 8 8 100 997 10 O/SO 14.8
Oggi h: 12:20 nuvoloso Nuvoloso 8 8 100 997 10 O 24
Oggi h: 11:50 molto_nuvoloso Molto Nuvoloso 8 8 100 997 10 O 22.2
Oggi h: 11:20 coperto_pioggia Pioggia Debole 8 8 100 996 10 O/SO 22.2
Oggi h: 10:50 coperto_pioggia Pioggia Debole 8 8 100 996 10 O/SO 25.9
Oggi h: 10:20 coperto_pioggia Pioggia Debole 8 8 100 996 8 SO 20.3
Oggi h: 09:50 coperto_pioggia Pioggia Debole 8 8 100 996 10 SO 18.5
Oggi h: 09:20 coperto_pioggia Pioggia Debole 8 8 100 996 10 SO 20.3
Oggi h: 08:50 nuvoloso Nuvoloso 8 8 100 996 10 SO 18.5
Oggi h: 08:20 molto_nuvoloso Molto Nuvoloso 9 8 93 995 10 SO 20.3
Oggi h: 07:50 molto_nuvoloso Molto Nuvoloso 9 8 93 995 10 SO 20.3
Oggi h: 06:50 nuvoloso Nuvoloso 9 9 100 996 10 O/SO 27.8
Oggi h: 06:20 molto_nuvoloso Molto Nuvoloso 9 9 100 996 10 O/SO 33.3
Oggi h: 05:50 molto_nuvoloso Molto Nuvoloso 10 10 100 995 10 SO 22.2
Oggi h: 05:20 coperto Coperto 10 10 100 996 9 SO 22.2
Oggi h: 04:50 molto_nuvoloso Molto Nuvoloso 11 11 100 996 10 SO 22.2
Oggi h: 04:20 coperto Coperto 11 11 100 996 10 S/SO 22.2
Oggi h: 03:50 coperto Coperto 11 11 100 997 10 SO 18.5
Oggi h: 03:20 molto_nuvoloso Molto Nuvoloso 11 11 100 997 10 S/SO 20.3
Oggi h: 02:50 molto_nuvoloso Molto Nuvoloso 11 11 100 998 10 S/SO 22.2
Oggi h: 02:20 coperto_pioggia Pioggia Debole 11 11 100 998 8 S/SO 20.3
Oggi h: 01:50 molto_nuvoloso Molto Nuvoloso 11 11 100 999 10 S/SO 20.3
Oggi h: 01:20 coperto_pioggia Pioggia 11 11 100 999 5 S/SO 18.5
Oggi h: 00:50 coperto_pioggia Pioggia Debole 11 11 100 999 9 S/SO 20.3
Oggi h: 00:20 foschia Foschia 11 11 100 1000 2 S/SO 18.5
Ieri h: 23:50 molto_nuvoloso Molto Nuvoloso 11 11 100 1000 7 S/SO 18.5
Ieri h: 23:20 coperto Coperto 11 11 100 1000 6 SO 18.5
Ieri h: 22:50 coperto Coperto 11 11 100 1000 7 SO 20.3